SCP
0 0 0 0 -0 0 0 0 0 -0 0 1 1 1 0 0 1 1 0 -0 0 0 0 -0 0 0 0 -0 0 -0 0 0 0 0 -0 0 0 0 0 0 0 0 0
0 1 0 0 0 0 0 0 -0 0 0 0 0 0 1 1 1 0 1 0 0 0 0 0 0 0 0 0 0 0 1 0 0 -0 0 0 0 0 1 0 0 0 0
0 0 1 0 0 0 0 0 0 0 0 0 0 0 0 0 0 1 1 0 0 0 0 0 1 0 0 0 0 0 0 0 1 0 0 1 1 1 0 1 1 1 0
0 0 1 1 0 0 0 0 0 1 0 0 0 0 0 0 0 1 1 1 0 0 1 0 0 0 0 1 0 0 0 0 0 0 0 0 1 0 0 0 1 0 0
0 1 2 1 0 0 -0 -0 0 1 1 1 1 0 0 0 0 1 1 1 1 0 0 0 0 0 0 1 1 0 0 1 1 0 0 0 0 0 0 1 0 0 0
0 0 1 1 0 0 0 0 0 0 1 0 1 0 0 0 0 0 0 0 0 1 1 0 0 0 1 0 0 0 1 1 1 0 0 0 0 0 1 1 1 0 0
-0 -0 0 -0 0 0 0 0 0 0 0 0 0 0 0 0 0 0 0 0 1 0 0 1 0 0 0 1 0 0 0 0 0 1 1 0 0 0 0 1 1 0 0
-0 -0 -0 -0 -0 0 0 0 0 0 0 0 0 0 -0 0 0 0 0 0 1 1 0 1 1 1 0 1 1 1 1 1 0 0 0 0 1 1 1 1 1 1 0
-0 -0 -0 -0 -0 -0 0 0 0 0 0 0 0 -0 -0 0 0 0 0 0 0 0 1 1 1 1 1 0 1 1 1 1 1 0 0 0 0 0 0 1 1 1 0
-0 -0 -0 -0 0 0 0 0 0 0 0 0 0 0 0 0 0 0 0 0 0 0 1 1 0 0 1 0 0 1 1 1 1 0 0 0 0 0 0 0 1 1 1
-0 0 0 0 0 0 0 1 1 1 0 0 0 0 0 0 1 0 0 0 0 0 0 0 0 0 0 0 0 0 1 0 1 1 1 0 1 1 1 0 1 1 1
0 1 1 1 0 0 1 1 1 0 0 0 0 0 0 0 0 0 0 0 0 0 0 0 0 0 0 0 0 0 0 0 0 0 0 0 1 1 1 0 0 0 0
0 0 0 0 0 1 1 1 0 0 0 0 0 0 1 0 0 0 0 0 0 0 0 0 0 0 0 0 0 0 0 0 0 0 0 0 1 0 0 0 0 0 0
0 0 0 0 0 1 0 0 0 0 0 0 0 0 0 1 0 0 0 0 0 0 0 0 0 0 0 0 0 0 0 0 0 0 0 0 0 0 0 0 0 0 0
0 0 0 0 1 1 1 0 0 0 0 0 0 0 0 0 0 0 0 0 0 0 0 0 0 0 0 0 0 0 0 0 0 0 0 0 0 0 0 0 0 0 0
0 0 0 0 0 1 0 1 0 0 0 0 0 0 0 0 0 0 0 0 0 0 0 0 0 0 0 0 0 0 0 0 0 0 0 0 0 0 0 0 0 0 0
-0 -0 0 0 0 0 0 0 0 0 0 0 0 0 0 0 0 0 0 0 0 0 0 0 0 0 0 0 0 0 0 0 0 0 0 0 0 0 0 0 0 0 0
-0 -0 -0 -0 0 0 0 0 0 0 0 0 0 0 0 0 0 0 0 0 0 0 0 0 0 0 0 0 0 0 0 0 0 0 0 0 0 0 0 0 0 0 0
-0 0 0 0 0 0 0 0 0 0 0 0 0 0 0 0 0 0 0 0 0 0 0 0 0 0 0 0 0 0 0 0 0 0 0 0 0 0 0 0 0 0 0
0 0 0 0 0 0 0 0 0 0 0 0 0 0 0 0 0 0 0 0 0 0 0 0 0 0 0 0 0 0 0 0 0 0 0 0 0 0 0 0 0 0 0
0 0 0 0 0 0 0 0 0 0 0 0 0 0 0 0 0 0 0 0 0 0 0 0 0 0 0 0 0 0 0 0 0 0 0 0 0 0 0 0 -0 -0 -0
0 0 0 0 0 0 0 0 0 0 0 0 0 0 0 0 0 0 0 0 0 0 0 0 0 0 0 0 0 0 0 0 0 0 0 0 0 -0 -0 -0 -0 -0 -0
0 0 0 0 0 0 0 0 0 0 0 0 0 0 0 0 0 0 0 0 0 0 0 0 0 0 -0 0 0 -0 0 -0 -0 -0 -0 -0 -0 -0 -0 -0 -0 -0 0
0 0 0 0 0 0 0 0 0 0 0 0 0 0 0 0 0 0 0 0 0 0 0 0 0 0 0 -0 -0 -0 -0 -0 -0 -0 -0 -0 -0 -0 -0 -0 0 0 0
0 0 0 0 0 0 0 0 0 0 0 0 0 0 0 0 0 0 0 0 0 0 0 0 0 0 -0 -0 0 -0 -0 -0 -0 -0 0 0 -0 -0 0 0 0 0 0
0 0 0 0 0 0 0 0 0 0 0 0 0 0 0 -0 -0 -0 0 0 0 0 0 0 0 0 0 0 0 0 0 0 0 0 -0 0 0 0 0 0 0 0 0
Wind_Speed_500mb
44 43 36 36 28 38 30 23 32 41 41 27 24 31 29 25 25 37 28 27 21 31 27 35 25 23 36 34 23 23 19 25 25 17 13 8 22 21 26 23 24 27 29
45 47 44 33 36 34 30 35 37 31 40 45 42 41 43 40 40 39 44 39 32 38 31 23 31 33 28 27 27 35 23 23 24 38 23 18 12 11 22 19 24 31 27
51 46 47 40 40 39 43 32 36 38 34 32 34 37 38 36 36 44 41 40 37 43 34 31 32 33 34 37 30 31 28 25 25 23 24 11 14 21 26 27 25 31 39
39 46 48 45 42 42 39 41 38 39 39 39 37 37 36 38 36 36 38 39 37 38 39 35 37 39 35 37 38 33 36 36 32 34 36 21 33 40 26 28 37 40 39
51 50 52 36 44 46 48 46 45 45 45 40 45 45 44 40 34 38 41 43 47 47 46 45 38 41 35 40 41 37 30 32 35 33 35 35 37 23 32 34 30 37 36
61 55 54 46 45 47 47 40 42 43 45 41 40 47 45 47 41 46 45 50 48 50 52 42 46 48 48 44 48 49 50 42 43 43 42 42 33 30 35 42 44 45 40
50 51 47 48 45 41 38 34 30 32 34 42 42 44 45 42 45 46 49 51 53 53 50 49 47 46 37 45 46 49 49 57 62 61 63 57 50 41 32 35 35 44 47
46 41 37 36 35 33 32 32 28 30 32 38 38 41 43 45 46 45 43 49 57 62 57 55 55 56 51 51 50 48 51 50 52 55 62 63 57 54 52 51 43 41 41
40 41 34 31 28 32 34 32 34 34 34 34 37 40 44 43 43 44 45 46 47 51 55 57 62 63 64 59 59 62 64 63 59 54 51 52 50 46 43 45 51 50 50
35 35 34 28 27 28 31 33 26 21 23 22 26 31 35 36 37 39 38 39 44 41 45 51 50 49 46 49 59 57 62 61 57 58 56 55 55 56 57 55 55 57 58
25 24 23 22 20 18 16 17 21 24 28 29 34 35 40 44 47 47 42 42 42 40 39 46 50 42 45 53 51 52 56 61 59 56 58 61 60 62 65 62 56 58 65
30 30 32 30 21 17 16 18 19 25 24 25 27 26 24 24 21 28 27 32 39 45 47 43 47 53 54 52 51 48 48 49 53 56 57 60 58 58 56 62 56 53 51
28 23 18 17 12 14 14 17 27 22 25 25 28 35 39 27 17 23 25 31 37 37 37 43 41 43 46 49 50 47 48 48 46 51 53 58 53 60 54 55 59 56 57
21 21 19 19 18 17 20 23 28 31 30 15 19 26 26 24 28 30 29 37 39 37 39 36 37 42 44 46 47 50 52 54 56 56 57 60 59 57 58 54 53 54 49
22 20 19 19 23 22 23 23 27 31 36 38 38 37 42 34 30 32 38 39 42 49 53 54 50 45 37 31 34 36 34 35 41 45 48 51 53 49 45 44 43 39 31
23 18 16 13 13 21 20 20 23 28 38 40 38 36 38 42 51 53 55 57 59 63 62 59 55 46 33 35 37 41 42 41 45 46 44 41 39 39 38 36 30 20 17
23 16 12 13 14 14 17 21 22 30 29 30 33 34 33 37 38 45 50 51 53 57 59 61 48 29 29 35 39 40 46 48 39 33 28 30 30 27 25 22 21 22 35
24 20 16 12 11 15 16 19 23 25 29 32 17 25 35 43 46 42 38 39 37 34 27 27 16 23 35 38 42 45 43 36 30 28 24 22 20 19 23 27 34 42 54
17 8 5 7 10 17 22 22 16 19 24 26 37 46 42 44 45 43 28 28 24 21 19 17 24 31 34 37 38 33 29 24 21 19 18 17 18 24 30 36 46 61 61
19 19 15 15 9 11 15 19 25 24 27 31 25 28 39 43 41 30 30 25 23 23 27 31 29 27 26 23 21 19 18 17 16 16 18 21 27 29 37 57 60 58 51
13 17 14 19 8 14 19 25 23 25 26 30 23 30 38 36 36 28 28 23 22 21 21 23 21 19 19 15 14 13 14 16 17 21 27 33 40 51 51 48 49 48 29
18 11 11 11 17 17 25 28 20 23 24 26 23 30 38 31 24 21 16 11 6 8 14 13 12 9 6 6 9 12 17 21 29 42 48 50 50 52 52 45 37 28 31
18 13 13 13 16 21 25 16 19 27 24 26 21 29 22 23 11 2 7 11 10 4 7 6 13 22 26 26 23 27 37 47 47 44 49 55 49 43 39 34 28 32 24
16 16 15 16 23 20 19 19 26 25 30 16 15 19 16 7 8 7 9 10 9 9 12 14 18 19 25 27 27 35 38 42 44 43 36 29 23 21 17 11 26 18 26
14 13 14 15 20 20 21 22 19 22 15 13 21 16 16 8 8 7 5 7 13 17 16 13 14 31 32 27 17 23 20 20 21 9 3 12 16 11 22 20 18 23 21
16 15 12 17 25 21 21 21 21 15 14 17 17 24 20 18 15 15 19 14 9 12 12 10 6 16 16 13 21 18 22 20 16 24 16 14 22 22 19 18 21 25 22
Wind_Direction_500mb
193 216 212 220 220 212 212 217 228 238 235 220 237 232 235 246 244 261 256 235 256 254 246 241 251 242 253 252 244 271 321 270 269 325 14 168 188 251 252 253 245 263 267
201 206 223 219 214 229 232 221 237 247 244 244 243 249 238 242 244 252 260 249 250 258 264 252 256 263 274 267 262 262 277 281 276 264 280 301 290 259 237 250 257 265 260
200 200 222 228 220 227 238 229 236 247 250 252 255 247 246 247 246 254 254 253 250 247 249 246 262 265 259 270 256 259 257 270 260 258 267 270 254 243 275 258 249 246 258
200 202 220 234 228 225 240 237 240 238 250 252 252 252 250 253 250 257 250 252 255 245 249 253 254 261 262 276 267 273 259 254 266 269 264 254 264 268 240 241 256 255 256
204 210 219 244 230 231 229 232 237 240 246 251 253 253 254 255 250 261 262 256 256 255 248 249 247 261 264 269 266 270 267 251 265 253 261 258 255 251 233 253 262 268 258
209 215 225 231 233 234 241 240 245 248 254 254 255 252 249 251 248 247 257 265 263 262 254 253 245 242 252 253 256 254 259 265 263 268 265 261 273 265 246 259 276 248 263
204 216 232 224 238 247 240 242 248 261 249 250 252 256 264 262 266 265 262 262 262 262 260 263 259 256 258 272 268 263 263 257 259 264 268 264 262 253 264 267 259 262 270
204 214 224 227 232 228 233 240 250 260 259 266 259 263 263 268 272 276 266 266 261 254 253 256 261 264 254 254 264 267 267 265 262 263 267 272 274 272 262 263 267 268 270
208 216 216 225 228 229 241 252 259 264 268 271 274 274 274 274 271 275 273 271 266 266 263 262 259 260 262 258 255 261 268 269 269 270 273 276 272 267 267 268 260 260 255
200 204 211 225 233 241 250 257 270 276 281 286 283 285 286 288 288 284 270 278 281 277 272 268 267 266 267 264 263 265 263 268 269 271 270 270 271 273 269 261 262 259 257
182 193 200 214 228 232 244 247 252 261 266 261 265 268 274 279 276 276 276 271 274 275 271 267 256 264 265 260 261 262 266 268 267 270 273 276 274 272 273 269 261 259 259
190 194 204 214 210 232 245 271 262 257 269 279 289 300 303 311 281 271 274 284 280 274 276 278 272 267 268 269 269 271 268 264 263 270 273 276 277 273 270 265 269 267 260
189 194 191 199 208 229 242 264 287 291 288 294 284 296 301 292 274 266 266 286 295 283 273 267 274 273 274 273 274 281 279 274 272 264 268 271 265 267 271 271 270 269 265
181 191 206 221 232 244 259 273 282 286 280 286 292 301 308 319 285 292 290 292 295 292 285 284 281 278 276 276 277 278 275 274 273 270 268 269 274 275 276 275 271 274 272
190 203 218 233 248 254 268 267 256 268 282 288 285 293 285 276 280 269 268 275 280 289 292 293 291 288 284 276 273 277 273 258 264 269 273 275 278 281 284 273 258 256 259
186 197 202 224 250 264 269 282 278 275 273 281 284 292 299 283 271 274 277 279 282 285 285 287 288 284 273 272 275 271 270 276 281 280 279 280 275 270 262 254 251 234 216
156 188 211 246 247 266 270 274 284 291 293 297 295 299 312 307 300 289 287 284 279 278 280 283 283 271 266 267 268 273 279 283 284 281 271 267 258 248 242 225 193 186 176
175 197 210 220 257 272 273 276 277 279 282 289 271 294 305 300 303 307 298 293 292 288 286 282 275 263 261 267 274 280 280 278 277 267 258 249 236 226 193 180 179 174 161
164 175 218 244 263 262 276 290 286 287 288 266 286 297 293 298 303 307 301 301 291 279 282 268 259 273 277 277 276 273 268 262 261 247 233 214 196 180 174 175 170 157 151
193 210 245 278 260 280 288 286 288 288 294 275 270 293 305 300 308 303 306 297 286 271 269 275 280 280 281 280 269 258 246 236 221 201 191 178 166 166 161 153 145 141 143
186 247 280 304 285 292 291 287 282 284 288 292 265 293 302 297 295 286 294 288 285 282 276 275 277 280 277 263 244 219 198 182 173 160 154 150 147 143 141 135 130 128 131
195 212 257 267 264 281 280 275 283 290 291 292 278 291 307 306 292 290 291 286 274 310 299 278 269 251 204 176 166 163 156 150 143 138 133 134 135 135 134 132 134 132 147
196 218 241 259 274 278 300 293 289 290 278 275 272 292 300 308 324 18 117 112 97 60 41 83 126 117 110 107 113 125 129 131 133 133 133 135 134 137 140 139 143 159 165
209 229 248 262 283 296 281 285 294 296 281 263 273 272 263 284 114 93 118 123 125 119 112 89 104 119 126 121 120 129 130 127 125 128 132 136 143 154 159 175 168 170 178
220 233 246 273 288 294 287 294 298 288 253 244 267 235 241 201 138 164 102 156 172 148 140 145 143 131 119 109 110 130 125 132 138 132 188 248 227 204 174 178 170 170 176
249 253 267 271 275 288 277 280 288 267 270 252 252 235 220 208 203 203 192 187 151 153 167 171 145 133 111 140 188 184 174 176 193 180 183 177 179 175 166 174 183 184 188
Wind_Speed_850mb
44 43 36 36 28 38 30 23 32 41 41 27 24 31 29 25 25 37 28 27 21 31 27 35 25 23 36 34 23 23 19 25 25 17 13 8 22 21 26 23 24 27 29
45 47 44 33 36 34 30 35 37 31 40 45 42 41 43 40 40 39 44 39 32 38 31 23 31 33 28 27 27 35 23 23 24 38 23 18 12 11 22 19 24 31 27
51 46 47 40 40 39 43 32 36 38 34 32 34 37 38 36 36 44 41 40 37 43 34 31 32 33 34 37 30 31 28 25 25 23 24 11 14 21 26 27 25 31 39
39 46 48 45 42 42 39 41 38 39 39 39 37 37 36 38 36 36 38 39 37 38 39 35 37 39 35 37 38 33 36 36 32 34 36 21 33 40 26 28 37 40 39
51 50 52 36 44 46 48 46 45 45 45 40 45 45 44 40 34 38 41 43 47 47 46 45 38 41 35 40 41 37 30 32 35 33 35 35 37 23 32 34 30 37 36
61 55 54 46 45 47 47 40 42 43 45 41 40 47 45 47 41 46 45 50 48 50 52 42 46 48 48 44 48 49 50 42 43 43 42 42 33 30 35 42 44 45 40
50 51 47 48 45 41 38 34 30 32 34 42 42 44 45 42 45 46 49 51 53 53 50 49 47 46 37 45 46 49 49 57 62 61 63 57 50 41 32 35 35 44 47
46 41 37 36 35 33 32 32 28 30 32 38 38 41 43 45 46 45 43 49 57 62 57 55 55 56 51 51 50 48 51 50 52 55 62 63 57 54 52 51 43 41 41
40 41 34 31 28 32 34 32 34 34 34 34 37 40 44 43 43 44 45 46 47 51 55 57 62 63 64 59 59 62 64 63 59 54 51 52 50 46 43 45 51 50 50
35 35 34 28 27 28 31 33 26 21 23 22 26 31 35 36 37 39 38 39 44 41 45 51 50 49 46 49 59 57 62 61 57 58 56 55 55 56 57 55 55 57 58
25 24 23 22 20 18 16 17 21 24 28 29 34 35 40 44 47 47 42 42 42 40 39 46 50 42 45 53 51 52 56 61 59 56 58 61 60 62 65 62 56 58 65
30 30 32 30 21 17 16 18 19 25 24 25 27 26 24 24 21 28 27 32 39 45 47 43 47 53 54 52 51 48 48 49 53 56 57 60 58 58 56 62 56 53 51
28 23 18 17 12 14 14 17 27 22 25 25 28 35 39 27 17 23 25 31 37 37 37 43 41 43 46 49 50 47 48 48 46 51 53 58 53 60 54 55 59 56 57
21 21 19 19 18 17 20 23 28 31 30 15 19 26 26 24 28 30 29 37 39 37 39 36 37 42 44 46 47 50 52 54 56 56 57 60 59 57 58 54 53 54 49
22 20 19 19 23 22 23 23 27 31 36 38 38 37 42 34 30 32 38 39 42 49 53 54 50 45 37 31 34 36 34 35 41 45 48 51 53 49 45 44 43 39 31
23 18 16 13 13 21 20 20 23 28 38 40 38 36 38 42 51 53 55 57 59 63 62 59 55 46 33 35 37 41 42 41 45 46 44 41 39 39 38 36 30 20 17
23 16 12 13 14 14 17 21 22 30 29 30 33 34 33 37 38 45 50 51 53 57 59 61 48 29 29 35 39 40 46 48 39 33 28 30 30 27 25 22 21 22 35
24 20 16 12 11 15 16 19 23 25 29 32 17 25 35 43 46 42 38 39 37 34 27 27 16 23 35 38 42 45 43 36 30 28 24 22 20 19 23 27 34 42 54
17 8 5 7 10 17 22 22 16 19 24 26 37 46 42 44 45 43 28 28 24 21 19 17 24 31 34 37 38 33 29 24 21 19 18 17 18 24 30 36 46 61 61
19 19 15 15 9 11 15 19 25 24 27 31 25 28 39 43 41 30 30 25 23 23 27 31 29 27 26 23 21 19 18 17 16 16 18 21 27 29 37 57 60 58 51
13 17 14 19 8 14 19 25 23 25 26 30 23 30 38 36 36 28 28 23 22 21 21 23 21 19 19 15 14 13 14 16 17 21 27 33 40 51 51 48 49 48 29
18 11 11 11 17 17 25 28 20 23 24 26 23 30 38 31 24 21 16 11 6 8 14 13 12 9 6 6 9 12 17 21 29 42 48 50 50 52 52 45 37 28 31
18 13 13 13 16 21 25 16 19 27 24 26 21 29 22 23 11 2 7 11 10 4 7 6 13 22 26 26 23 27 37 47 47 44 49 55 49 43 39 34 28 32 24
16 16 15 16 23 20 19 19 26 25 30 16 15 19 16 7 8 7 9 10 9 9 12 14 18 19 25 27 27 35 38 42 44 43 36 29 23 21 17 11 26 18 26
14 13 14 15 20 20 21 22 19 22 15 13 21 16 16 8 8 7 5 7 13 17 16 13 14 31 32 27 17 23 20 20 21 9 3 12 16 11 22 20 18 23 21
16 15 12 17 25 21 21 21 21 15 14 17 17 24 20 18 15 15 19 14 9 12 12 10 6 16 16 13 21 18 22 20 16 24 16 14 22 22 19 18 21 25 22
Wind_Direction_850mb
193 216 212 220 220 212 212 217 228 238 235 220 237 232 235 246 244 261 256 235 256 254 246 241 251 242 253 252 244 271 321 270 269 325 14 168 188 251 252 253 245 263 267
201 206 223 219 214 229 232 221 237 247 244 244 243 249 238 242 244 252 260 249 250 258 264 252 256 263 274 267 262 262 277 281 276 264 280 301 290 259 237 250 257 265 260
200 200 222 228 220 227 238 229 236 247 250 252 255 247 246 247 246 254 254 253 250 247 249 246 262 265 259 270 256 259 257 270 260 258 267 270 254 243 275 258 249 246 258
200 202 220 234 228 225 240 237 240 238 250 252 252 252 250 253 250 257 250 252 255 245 249 253 254 261 262 276 267 273 259 254 266 269 264 254 264 268 240 241 256 255 256
204 210 219 244 230 231 229 232 237 240 246 251 253 253 254 255 250 261 262 256 256 255 248 249 247 261 264 269 266 270 267 251 265 253 261 258 255 251 233 253 262 268 258
209 215 225 231 233 234 241 240 245 248 254 254 255 252 249 251 248 247 257 265 263 262 254 253 245 242 252 253 256 254 259 265 263 268 265 261 273 265 246 259 276 248 263
204 216 232 224 238 247 240 242 248 261 249 250 252 256 264 262 266 265 262 262 262 262 260 263 259 256 258 272 268 263 263 257 259 264 268 264 262 253 264 267 259 262 270
204 214 224 227 232 228 233 240 250 260 259 266 259 263 263 268 272 276 266 266 261 254 253 256 261 264 254 254 264 267 267 265 262 263 267 272 274 272 262 263 267 268 270
208 216 216 225 228 229 241 252 259 264 268 271 274 274 274 274 271 275 273 271 266 266 263 262 259 260 262 258 255 261 268 269 269 270 273 276 272 267 267 268 260 260 255
200 204 211 225 233 241 250 257 270 276 281 286 283 285 286 288 288 284 270 278 281 277 272 268 267 266 267 264 263 265 263 268 269 271 270 270 271 273 269 261 262 259 257
182 193 200 214 228 232 244 247 252 261 266 261 265 268 274 279 276 276 276 271 274 275 271 267 256 264 265 260 261 262 266 268 267 270 273 276 274 272 273 269 261 259 259
190 194 204 214 210 232 245 271 262 257 269 279 289 300 303 311 281 271 274 284 280 274 276 278 272 267 268 269 269 271 268 264 263 270 273 276 277 273 270 265 269 267 260
189 194 191 199 208 229 242 264 287 291 288 294 284 296 301 292 274 266 266 286 295 283 273 267 274 273 274 273 274 281 279 274 272 264 268 271 265 267 271 271 270 269 265
181 191 206 221 232 244 259 273 282 286 280 286 292 301 308 319 285 292 290 292 295 292 285 284 281 278 276 276 277 278 275 274 273 270 268 269 274 275 276 275 271 274 272
190 203 218 233 248 254 268 267 256 268 282 288 285 293 285 276 280 269 268 275 280 289 292 293 291 288 284 276 273 277 273 258 264 269 273 275 278 281 284 273 258 256 259
186 197 202 224 250 264 269 282 278 275 273 281 284 292 299 283 271 274 277 279 282 285 285 287 288 284 273 272 275 271 270 276 281 280 279 280 275 270 262 254 251 234 216
156 188 211 246 247 266 270 274 284 291 293 297 295 299 312 307 300 289 287 284 279 278 280 283 283 271 266 267 268 273 279 283 284 281 271 267 258 248 242 225 193 186 176
175 197 210 220 257 272 273 276 277 279 282 289 271 294 305 300 303 307 298 293 292 288 286 282 275 263 261 267 274 280 280 278 277 267 258 249 236 226 193 180 179 174 161
164 175 218 244 263 262 276 290 286 287 288 266 286 297 293 298 303 307 301 301 291 279 282 268 259 273 277 277 276 273 268 262 261 247 233 214 196 180 174 175 170 157 151
193 210 245 278 260 280 288 286 288 288 294 275 270 293 305 300 308 303 306 297 286 271 269 275 280 280 281 280 269 258 246 236 221 201 191 178 166 166 161 153 145 141 143
186 247 280 304 285 292 291 287 282 284 288 292 265 293 302 297 295 286 294 288 285 282 276 275 277 280 277 263 244 219 198 182 173 160 154 150 147 143 141 135 130 128 131
195 212 257 267 264 281 280 275 283 290 291 292 278 291 307 306 292 290 291 286 274 310 299 278 269 251 204 176 166 163 156 150 143 138 133 134 135 135 134 132 134 132 147
196 218 241 259 274 278 300 293 289 290 278 275 272 292 300 308 324 18 117 112 97 60 41 83 126 117 110 107 113 125 129 131 133 133 133 135 134 137 140 139 143 159 165
209 229 248 262 283 296 281 285 294 296 281 263 273 272 263 284 114 93 118 123 125 119 112 89 104 119 126 121 120 129 130 127 125 128 132 136 143 154 159 175 168 170 178
220 233 246 273 288 294 287 294 298 288 253 244 267 235 241 201 138 164 102 156 172 148 140 145 143 131 119 109 110 130 125 132 138 132 188 248 227 204 174 178 170 170 176
249 253 267 271 275 288 277 280 288 267 270 252 252 235 220 208 203 203 192 187 151 153 167 171 145 133 111 140 188 184 174 176 193 180 183 177 179 175 166 174 183 184 188